New Castle, PA

1:54 AM EST on November 20, 2019 (GMT -0500)
New Castle Municipal

Weather History for KUCP - October, 2019

Change the Weather History Date:

Monday, October 21, 2019

  Actual Average Record
Temperature  
Mean Temperature 56 °F -  
Max Temperature 73 °F 61 °F 82 °F (1979)
Min Temperature 39 °F 38 °F 18 °F (1952)
Degree Days  
Heating Degree Days 10    
Growing Degree Days 6 (Base 50)    
Moisture  
Dew Point 44 °F    
Average Humidity 81    
Maximum Humidity 100    
Minimum Humidity 38    
Precipitation  
Precipitation 0.00 in - - ()
Sea Level Pressure  
Sea Level Pressure 30.01 in    
Wind  
Wind Speed 1 mph (SE)    
Max Wind Speed 12 mph    
Max Gust Speed 17 mph    
Visibility 6 miles    
Events Fog    
Averages and records for this station are not official NWS values.
T = Trace of Precipitation, MM = Missing Value Source: NWS Daily Summary

Daily Weather History Graph

Daily Weather History Graph

Search for Another Location

Airport or City:

Astronomy

Oct. 21, 2019 Rise Set
Actual Time 7:39 AM EDT 6:32 PM EDT
Civil Twilight 7:11 AM EDT 7:00 PM EDT
Nautical Twilight 6:39 AM EDT 7:32 PM EDT
Astronomical Twilight 6:07 AM EDT 8:04 PM EDT
Moon No Moon Rise 2:58 PM EDT (10/21)
Length of Visible Light 11h 48m
Length of Day
10h 52m
Waning Gibbous, 48% of the Moon is Illuminated
Oct 21
Waning Gibbous
Oct 27
New
Nov 4
First Quarter
Nov 12
Full
Nov 19
Last Quarter

Hourly Weather History & Observations

Time (EDT) Temp. Dew Point Humidity Pressure Visibility Wind Dir Wind Speed Gust Speed Precip Events Conditions
12:56 AM 44.1 °F 43.0 °F 96% 30.06 in 6.0 mi Calm Calm - N/A   Clear
1:56 AM 45.0 °F 44.1 °F 97% 30.06 in 3.0 mi Calm Calm - N/A   Clear
2:12 AM 44.6 °F 44.6 °F 100% 30.02 in 2.5 mi Calm Calm - N/A   Clear
2:56 AM 44.1 °F 43.0 °F 96% 30.07 in 3.0 mi Calm Calm - N/A   Clear
3:56 AM 43.0 °F 43.0 °F 100% 30.06 in 5.0 mi Calm Calm - N/A   Clear
4:56 AM 43.0 °F 42.1 °F 97% 30.07 in 3.0 mi Calm Calm - N/A   Clear
5:07 AM 42.8 °F 42.8 °F 100% 30.03 in 1.8 mi Calm Calm - N/A   Clear
5:24 AM 42.8 °F 42.8 °F 100% 30.02 in 3.0 mi Calm Calm - N/A   Clear
5:33 AM 42.8 °F 42.8 °F 100% 30.02 in 1.0 mi Calm Calm - N/A   Clear
5:43 AM 42.8 °F 41.0 °F 93% 30.01 in 1.8 mi Calm Calm - N/A   Partly Cloudy
5:51 AM 41.0 °F 41.0 °F 100% 30.01 in 0.8 mi Calm Calm - N/A   Mist
5:56 AM 41.0 °F 39.9 °F 96% 30.06 in 0.5 mi Calm Calm - N/A Fog Fog
6:10 AM 39.2 °F 39.2 °F 100% 30.02 in 1.0 mi Calm Calm - N/A   Mist
6:16 AM 39.2 °F 39.2 °F 100% 30.02 in 2.0 mi Calm Calm - N/A   Partly Cloudy
6:29 AM 39.2 °F 39.2 °F 100% 30.03 in 5.0 mi Calm Calm - N/A   Clear
6:56 AM 41.0 °F 39.9 °F 96% 30.09 in 4.0 mi Calm Calm - N/A   Clear
7:36 AM 41.0 °F 41.0 °F 100% 30.04 in 1.8 mi Calm Calm - N/A   Clear
7:41 AM 41.0 °F 41.0 °F 100% 30.04 in 0.8 mi Calm Calm - N/A   Clear
7:50 AM 44.6 °F 42.8 °F 93% 30.04 in 1.2 mi Calm Calm - N/A   Clear
7:52 AM 42.8 °F 42.8 °F 100% 30.04 in 5.0 mi Calm Calm - N/A   Clear
7:56 AM 43.0 °F 42.1 °F 97% 30.09 in 6.0 mi Calm Calm - N/A   Clear
8:56 AM 48.0 °F 46.9 °F 96% 30.09 in 9.0 mi Variable 3.5 mph - N/A   Clear
9:56 AM 50.0 °F 48.0 °F 93% 30.09 in 10.0 mi Calm Calm - N/A   Clear
10:56 AM 60.1 °F 52.0 °F 75% 30.06 in 10.0 mi Calm Calm - N/A   Clear
11:56 AM 66.0 °F 48.9 °F 54% 30.04 in 10.0 mi ESE 8.1 mph - N/A   Clear
12:56 PM 70.0 °F 46.9 °F 44% 30.01 in 10.0 mi SE 9.2 mph - N/A   Clear
1:56 PM 71.1 °F 44.1 °F 38% 29.96 in 10.0 mi Variable 6.9 mph 16.1 mph N/A   Clear
2:56 PM 72.0 °F 45.0 °F 38% 29.94 in 10.0 mi ESE 11.5 mph 17.3 mph N/A   Clear
3:56 PM 71.1 °F 44.1 °F 38% 29.93 in 10.0 mi SE 9.2 mph - N/A   Clear
4:56 PM 71.1 °F 45.0 °F 39% 29.91 in 10.0 mi SE 5.8 mph - N/A   Clear
5:56 PM 68.0 °F 46.0 °F 45% 29.91 in 10.0 mi ESE 5.8 mph - N/A   Clear
6:56 PM 66.0 °F 46.0 °F 48% 29.90 in 10.0 mi ESE 6.9 mph - N/A   Clear
7:56 PM 66.0 °F 46.0 °F 48% 29.90 in 10.0 mi Variable 4.6 mph - N/A   Partly Cloudy
8:56 PM 66.0 °F 46.9 °F 50% 29.88 in 10.0 mi Variable 6.9 mph - N/A   Mostly Cloudy
9:56 PM 64.9 °F 48.0 °F 54% 29.87 in 10.0 mi SE 6.9 mph - N/A   Scattered Clouds